Tracking 23726 objects as of 25-Sep-2021
HD Live streaming from Space Station
objects crossing your sky now

GORIZONT 31

Track GORIZONT 31 now!
GORIZONT 31 is classified as:


NORAD ID: 23775
Int'l Code: 1996-005A
Perigee: 35,825.5 km
Apogee: 35,971.1 km
Inclination: 14.5 °
Period: 1,441.4 minutes
Semi major axis: 42269 km
RCS: 12.5892 m2 (large)
Launch date: January 25, 1996
Source: Commonwealth of Independent States (former USSR) (CIS)
Launch site: TYURATAM MISSILE AND SPACE COMPLEX (TTMTR)

Telecommunications; telephone and television communications to the Russian republic.
aabbcc
Your satellite tracking list
Your tracking list is empty




NASA's NSSDC Master Catalog

Two Line Element Set (TLE):
1 23775U 96005A   21266.06299459 -.00000176  00000-0  00000-0 0  9990
2 23775  14.5200   7.6897 0017229 192.0304 174.4425  0.99900053 93795
Source of the keplerian elements: AFSPC